Torna al catalogo

CZ-4B DEB

AttivoSSO
NORAD 44592·DEBRIS·🇨🇳 China

Lanciato May 27, 2008 da Taiyuan Satellite Launch Center

Loading…

Prossimi Passaggi (prossime 24 ore)

TLE

AggiornatoSource: Space-Track

Epoca: Sep 14, 2026, 11:09 UTC

1 44592U 08026G   26257.46513948  .00000067  00000-0  33775-4 0  9994
2 44592  98.8480 332.3614 0069047   7.3335 352.8847 14.42935425674319

Traccia CZ-4B DEB in tempo reale con AllMySat

Download on the App Store